Location: Alumbaugh
(37.5976°N, 83.9299°W)
Time: 11:20:12
(UTC+00:00)

CUTE-I - Visible Passes

Search period start: 02 April 2023 00:00
Search period end: 12 April 2023 00:00
Orbit: 809 x 823 km, 98.7° (Epoch: 02 April)

Date Brightness Start Highest point End Pass type
(mag) Time Alt. Az. Time Alt. Az. Time Alt. Az.
02 Apr ? 00:30:32 10° SW 00:33:20 14° W 00:36:09 10° WNW visible
03 Apr ? 10:45:41 10° NE 10:49:16 18° E 10:52:50 10° SE visible
04 Apr ? 10:26:13 10° E 10:27:07 10° E 10:28:00 10° E visible
06 Apr ? 00:44:58 10° W 00:45:51 10° W 00:46:44 10° W visible
07 Apr ? 00:20:09 10° SW 00:23:41 18° W 00:27:15 10° NW visible
08 Apr ? 10:36:48 10° ENE 10:39:38 14° E 10:42:27 10° ESE visible
11 Apr ? 00:33:38 10° WSW 00:36:10 13° W 00:38:43 10° WNW visible
